Location: Henham
(51.9333°N, 0.2500°E)
Time: 00:19:47
(UTC+00:00)

STARLINK-51 - Pass Details

Date: 23 October 2019
Orbit: 548 x 551 km, 53.0° (Epoch: 12 November)

Event Time Altitude Azimuth Distance (km) Brightness Sun altitude
Rises 18:13:38 0° 279° (W) 2,719 9.0 -13.7°
Reaches altitude 10° 18:15:52 10° 281° (W) 1,825 7.6 -14.0°
Maximum altitude 18:20:01 81° 8° (N) 562 3.6 -14.7°
Enters shadow 18:22:11 27° 94° (E) 1,064 4.5 -15.0°
